User: anonymous   Login
Location: Fontevrault
(47.1823°N, 0.0493°E)
Time: 17:39:12
(UTC+00:00)
Language:

Resurs 01 Rocket - Orbit

View from above orbital plane
View from above orbital plane
View from above satellite
View from above satellite

Ground track
Ground track

The orbit data is extracted from the following two-line orbital elements,

1 23343U 94074B   21264.08982160  .00000046  00000-0  13715-4 0  9999
2 23343  97.9365 317.2148 0008273 103.8281 312.9052 14.76900944446612
Epoch (UTC): 21 September 2021 02:09:20
Eccentricity: 0.0008273
inclination: 97.9365°
perigee height: 633 km
apogee height: 645 km
right ascension of ascending node: 317.2148°
argument of perigee: 103.8281°
revolutions per day: 14.76900944
mean anomaly at epoch: 312.9052°
orbit number at epoch: 44661

The dashed part of the orbit path shows where the satellite is in the earth's shadow,  

DLR